Location: Foligno
(42.9600°N, 12.7050°E)
Time: 10:03:18
(UTC+02:00)

ISS - Pass Details

Date: 09 May 2021
Orbit: 417 x 422 km, 51.6° (Epoch: 15 May)

Event Time Altitude Azimuth Distance (km) Brightness Sun altitude
Exits shadow 02:03:26 19° 30° (NNE) 1,071 -1.0 -28.2°
Drops below altitude 10° 02:04:43 10° 44° (NE) 1,505 -0.2 -28.2°
Sets 02:06:58 0° 55° (NE) 2,372 0.8 -28.1°
